FW7504 Weather Reports


Display with metric or nautical units.
time (UTC)temp
F
wind
direction
speed
MPH
gust
MPH
rain 1hr
in
rain 24hr
in
rain mn
in
humidity
%
barometer
mb
20260504012052 60 0 0.0 1.0 0.00 0.00 0.00 58 1017.9
20260504011553 61 0 0.0 0.0 0.00 0.00 0.00 58 1017.9
20260504011053 61 0 0.0 0.0 0.00 0.00 0.00 59 1017.9
20260504010554 61 0 0.0 0.0 0.00 0.00 0.00 57 1017.8
20260504010058 62 0 0.0 0.0 0.00 0.00 0.00 56 1017.9
20260504005553 62 0 0.0 0.0 0.00 0.00 0.00 56 1017.7
20260504005053 63 0 0.0 0.0 0.00 0.00 0.00 54 1017.8
20260504004554 63 0 0.0 0.0 0.00 0.00 0.00 55 1017.8
20260504004053 63 0 0.0 0.0 0.00 0.00 0.00 54 1017.8
20260504003552 64 0 0.0 0.0 0.00 0.00 0.00 53 1017.7
20260504003053 64 0 0.0 0.0 0.00 0.00 0.00 51 1017.6
20260504002552 64 0 0.0 0.0 0.00 0.00 0.00 51 1017.7
20260504002052 64 0 0.0 1.0 0.00 0.00 0.00 50 1017.8
20260504001555 65 0 0.0 2.0 0.00 0.00 0.00 51 1017.7
20260504001055 65 0 0.0 2.0 0.00 0.00 0.00 51 1017.6
20260504000551 65 0 0.0 2.0 0.00 0.00 0.00 50 1017.7
20260504000056 65 0 0.0 2.0 0.00 0.00 0.00 49 1017.8
20260503235552 66 0 0.0 3.0 0.00 0.00 0.00 48 1017.7
20260503235055 66 0 1.0 3.0 0.00 0.00 0.00 48 1017.7
20260503234623 66 0 0.0 3.0 0.00 0.00 0.00 50 1017.8
20260503234055 66 360 0.0 2.0 0.00 0.00 0.00 47 1017.8
20260503233553 66 0 0.0 2.0 0.00 0.00 0.00 47 1017.8
20260503233054 67 0 0.0 3.0 0.00 0.00 0.00 48 1017.8
20260503232552 67 0 0.0 3.0 0.00 0.00 0.00 45 1017.9
20260503232052 67 360 0.0 3.0 0.00 0.00 0.00 46 1017.8
20260503231555 67 360 1.0 4.0 0.00 0.00 0.00 44 1017.9
20260503231053 67 0 1.0 4.0 0.00 0.00 0.00 45 1018.0
20260503230553 67 360 0.0 3.0 0.00 0.00 0.00 44 1018.0
20260503230100 67 0 0.0 5.0 0.00 0.00 0.00 44 1017.9
20260503225552 67 360 0.0 5.0 0.00 0.00 0.00 44 1018.0
20260503225053 68 360 2.0 5.0 0.00 0.00 0.00 43 1018.0
20260503224556 68 360 1.0 4.0 0.00 0.00 0.00 42 1018.1
20260503224052 68 360 0.0 3.0 0.00 0.00 0.00 43 1018.0
20260503223553 68 0 0.0 3.0 0.00 0.00 0.00 38 1018.1
20260503223058 68 360 1.0 4.0 0.00 0.00 0.00 41 1018.2
20260503222555 68 360 1.0 4.0 0.00 0.00 0.00 40 1018.1
20260503222052 69 360 0.0 4.0 0.00 0.00 0.00 40 1018.2
20260503221601 69 236 2.0 4.0 0.00 0.00 0.00 37 1018.2
20260503221052 69 0 0.0 5.0 0.00 0.00 0.00 37 1018.1
20260503220552 69 0 1.0 7.0 0.00 0.00 0.00 38 1018.1
20260503220058 70 360 2.0 7.0 0.00 0.00 0.00 37 1018.0
20260503215552 70 224 1.0 7.0 0.00 0.00 0.00 39 1018.1
20260503215051 70 0 1.0 5.0 0.00 0.00 0.00 38 1018.1
20260503214600 70 360 1.0 5.0 0.00 0.00 0.00 39 1018.2
20260503214055 70 0 1.0 5.0 0.00 0.00 0.00 37 1018.2
20260503213553 70 360 1.0 4.0 0.00 0.00 0.00 38 1018.3
20260503213055 70 360 2.0 5.0 0.00 0.00 0.00 40 1018.4
20260503212553 69 360 1.0 5.0 0.00 0.00 0.00 39 1018.5
20260503212053 69 360 1.0 5.0 0.00 0.00 0.00 41 1018.5
20260503211559 69 360 2.0 6.0 0.00 0.00 0.00 39 1018.6
20260503211052 69 360 2.0 6.0 0.00 0.00 0.00 38 1018.6
20260503210552 68 360 1.0 6.0 0.00 0.00 0.00 40 1018.7
20260503210100 68 0 1.0 6.0 0.00 0.00 0.00 39 1018.8
20260503205555 68 360 2.0 6.0 0.00 0.00 0.00 39 1018.9
20260503205052 68 360 1.0 8.0 0.00 0.00 0.00 39 1018.9
20260503204558 68 360 3.0 8.0 0.00 0.00 0.00 36 1019.1
20260503204052 68 360 2.0 8.0 0.00 0.00 0.00 35 1019.1
20260503203548 68 360 1.0 8.0 0.00 0.00 0.00 38 1019.1
20260503203100 68 360 2.0 8.0 0.00 0.00 0.00 40 1019.3
20260503202553 68 360 3.0 8.0 0.00 0.00 0.00 40 1019.3
20260503202053 68 360 1.0 4.0 0.00 0.00 0.00 42 1019.3
20260503201558 67 0 1.0 6.0 0.00 0.00 0.00 44 1019.4
20260503201052 67 0 2.0 6.0 0.00 0.00 0.00 44 1019.6
20260503200552 67 0 0.0 3.0 0.00 0.00 0.00 43 1019.5
20260503200058 67 0 1.0 6.0 0.00 0.00 0.00 43 1019.6
20260503195558 66 360 1.0 6.0 0.00 0.00 0.00 43 1019.8
20260503195055 66 0 1.0 3.0 0.00 0.00 0.00 42 1019.8
20260503194600 66 0 1.0 5.0 0.00 0.00 0.00 42 1019.9
20260503194053 66 360 2.0 6.0 0.00 0.00 0.00 46 1019.9
20260503193552 66 0 1.0 6.0 0.00 0.00 0.00 44 1020.0
20260503193058 65 360 1.0 4.0 0.00 0.00 0.00 44 1020.1
20260503192552 65 0 0.0 5.0 0.00 0.00 0.00 44 1020.2
20260503192053 65 360 1.0 5.0 0.00 0.00 0.00 43 1020.4
20260503191558 65 360 2.0 5.0 0.00 0.00 0.00 46 1020.5
20260503191054 65 0 0.0 5.0 0.00 0.00 0.00 46 1020.6
20260503190556 65 0 2.0 5.0 0.00 0.00 0.00 43 1020.8
20260503190056 65 0 1.0 5.0 0.00 0.00 0.00 44 1020.9
20260503185552 65 360 0.0 5.0 0.00 0.00 0.00 46 1020.9
20260503185056 65 0 2.0 5.0 0.00 0.00 0.00 45 1021.0
20260503184600 65 360 2.0 4.0 0.00 0.00 0.00 44 1021.0
20260503184056 65 360 1.0 4.0 0.00 0.00 0.00 47 1021.0
20260503183551 64 360 0.0 8.0 0.00 0.00 0.00 45 1021.0
20260503183058 64 0 0.0 8.0 0.00 0.00 0.00 44 1021.1
20260503182552 64 360 2.0 8.0 0.00 0.00 0.00 45 1021.1
20260503182053 64 360 0.0 2.0 0.00 0.00 0.00 45 1021.2
20260503181555 64 0 0.0 3.0 0.00 0.00 0.00 45 1021.1
20260503181053 64 360 0.0 3.0 0.00 0.00 0.00 44 1021.3
20260503180553 64 360 1.0 5.0 0.00 0.00 0.00 44 1021.5
20260503180106 64 360 1.0 5.0 0.00 0.00 0.00 45 1021.5
20260503175553 64 360 1.0 5.0 0.00 0.00 0.00 44 1021.4
20260503175052 64 360 1.0 6.0 0.00 0.00 0.00 42 1021.6
20260503174559 64 0 1.0 6.0 0.00 0.00 0.00 41 1021.6
20260503174052 64 360 2.0 5.0 0.00 0.00 0.00 42 1021.6
20260503173552 64 360 0.0 2.0 0.00 0.00 0.00 43 1021.6
20260503173109 64 0 0.0 3.0 0.00 0.00 0.00 42 1021.8
20260503172553 63 0 0.0 5.0 0.00 0.00 0.00 43 1021.8
20260503172052 63 360 0.0 5.0 0.00 0.00 0.00 44 1021.8
20260503171554 62 360 1.0 5.0 0.00 0.00 0.00 45 1022.0
20260503171052 62 0 1.0 4.0 0.00 0.00 0.00 46 1022.1
20260503170552 62 0 0.0 4.0 0.00 0.00 0.00 47 1022.0
20260503150552 61 360 2.0 9.0 0.00 0.00 0.00 51 1023.1
20260503131049 51 360 1.0 5.0 0.00 0.00 0.00 77 1022.8
20260503130556 50 360 2.0 4.0 0.00 0.00 0.00 78 1022.6
20260503120105 44 0 0.0 0.0 0.00 0.00 0.00 89 1022.7
20260503110551 42 0 0.0 0.0 0.00 0.00 0.00 87 1021.9
20260503110111 42 0 0.0 0.0 0.00 0.00 0.00 87 1021.8
20260503081556 46 0 0.0 1.0 0.00 0.00 0.00 83 1020.2
20260503081051 46 0 0.0 1.0 0.00 0.00 0.00 83 1020.2
20260503080552 46 0 0.0 1.0 0.00 0.00 0.00 83 1020.2
20260503072556 47 0 0.0 2.0 0.00 0.00 0.00 82 1020.0
20260503072051 47 360 1.0 2.0 0.00 0.00 0.00 82 1020.0
20260503071610 47 0 1.0 2.0 0.00 0.00 0.00 81 1019.9
20260503071048 47 0 0.0 0.0 0.00 0.00 0.00 81 1019.9
20260503070551 47 0 0.0 0.0 0.00 0.00 0.00 80 1019.9
20260503060110 49 0 0.0 0.0 0.00 0.00 0.00 76 1019.7
20260503055051 49 0 0.0 0.0 0.00 0.00 0.00 76 1019.7
20260503054559 50 0 0.0 1.0 0.00 0.00 0.00 75 1019.6
20260503054051 50 0 0.0 2.0 0.00 0.00 0.00 75 1019.6
20260503053552 50 0 0.0 2.0 0.00 0.00 0.00 74 1019.6
20260503053051 50 0 0.0 2.0 0.00 0.00 0.00 74 1019.7
20260503052552 50 0 0.0 1.0 0.00 0.00 0.00 73 1019.6
20260503052051 50 0 0.0 1.0 0.00 0.00 0.00 73 1019.5
20260503051551 51 0 0.0 1.0 0.00 0.00 0.00 73 1019.5
20260503051054 51 0 0.0 3.0 0.00 0.00 0.00 74 1019.5
20260503050551 51 0 0.0 3.0 0.00 0.00 0.00 74 1019.4
20260503050058 51 360 0.0 3.0 0.00 0.00 0.00 72 1019.6
20260503045554 51 0 0.0 1.0 0.00 0.00 0.00 72 1019.5
20260503045054 51 0 0.0 1.0 0.00 0.00 0.00 72 1019.4
20260503044554 51 0 0.0 1.0 0.00 0.00 0.00 72 1019.4
20260503044055 51 0 0.0 0.0 0.00 0.00 0.00 71 1019.3
20260503043553 51 0 0.0 0.0 0.00 0.00 0.00 71 1019.3
20260503043053 52 0 0.0 0.0 0.00 0.00 0.00 71 1019.3
20260503042557 52 0 0.0 1.0 0.00 0.00 0.00 70 1019.4
20260503042053 52 0 0.0 1.0 0.00 0.00 0.00 70 1019.3
20260503041551 52 0 0.0 1.0 0.00 0.00 0.00 68 1019.3
20260503041052 53 0 0.0 0.0 0.00 0.00 0.00 68 1019.3
20260503040554 53 0 0.0 0.0 0.00 0.00 0.00 67 1019.2
20260503040111 53 0 0.0 0.0 0.00 0.00 0.00 67 1019.1
20260503035554 53 0 0.0 0.0 0.00 0.00 0.00 68 1019.2
20260503035054 54 0 0.0 2.0 0.00 0.00 0.00 66 1019.1
20260503034553 54 0 0.0 2.0 0.00 0.00 0.00 65 1019.1
20260503034055 54 360 0.0 3.0 0.00 0.00 0.00 65 1019.0
20260503033553 54 0 0.0 4.0 0.00 0.00 0.00 64 1019.2
20260503033053 54 360 0.0 4.0 0.00 0.00 0.00 63 1019.0
20260503032553 55 0 0.0 6.0 0.00 0.00 0.00 63 1019.0
20260503032053 55 360 0.0 6.0 0.00 0.00 0.00 62 1019.0
20260503031603 55 360 2.0 6.0 0.00 0.00 0.00 62 1019.0
20260503031051 55 360 0.0 3.0 0.00 0.00 0.00 62 1019.0
20260503030553 55 0 0.0 8.0 0.00 0.00 0.00 61 1019.0
20260503030059 55 360 2.0 8.0 0.00 0.00 0.00 61 1019.1
20260503025553 56 360 2.0 8.0 0.00 0.00 0.00 60 1019.1
20260503025053 56 360 3.0 9.0 0.00 0.00 0.00 59 1019.2
20260503024553 56 360 3.0 9.0 0.00 0.00 0.00 59 1019.2
20260503024055 56 0 2.0 11.0 0.00 0.00 0.00 58 1019.0
20260503023554 57 0 4.0 11.0 0.00 0.00 0.00 57 1018.9
20260503023057 57 360 2.0 10.0 0.00 0.00 0.00 56 1018.9
20260503022554 57 360 2.0 10.0 0.00 0.00 0.00 55 1018.6
20260503022056 57 360 2.0 8.0 0.00 0.00 0.00 54 1018.6
20260503021552 58 360 2.0 9.0 0.00 0.00 0.00 54 1018.4
20260503021053 58 360 1.0 9.0 0.00 0.00 0.00 53 1018.4
20260503020553 58 360 1.0 5.0 0.00 0.00 0.00 53 1018.4
20260503020056 58 360 2.0 5.0 0.00 0.00 0.00 52 1018.2
20260503015555 59 360 2.0 4.0 0.00 0.00 0.00 51 1018.1
20260503015054 59 360 1.0 9.0 0.00 0.00 0.00 51 1018.0
20260503014607 59 360 1.0 9.0 0.00 0.00 0.00 51 1017.9
20260503014051 59 0 4.0 10.0 0.00 0.00 0.00 50 1018.0
20260503013548 59 360 3.0 10.0 0.00 0.00 0.00 49 1018.0
20260503013052 59 360 3.0 10.0 0.00 0.00 0.00 48 1017.8
20260503012552 60 360 2.0 14.0 0.00 0.00 0.00 48 1017.9